Wind_Speed
12 12 15 17 8 8 17 20 25 18 8 0 6 5 15 14 9 5 21 21 22 24 27 27 26 25 23 20 17 16 16 15 14 13 14 14 14 13 12 12 10 9 8 8 7 7 7 7 7
14 13 14 17 11 14 15 22 24 20 9 8 2 5 10 18 16 19 17 21 19 26 28 28 26 24 22 19 17 16 16 15 14 13 13 13 12 12 11 10 9 8 7 7 7 6 6 6 6
15 12 16 8 15 17 19 9 18 8 12 8 6 5 8 10 17 14 23 23 19 26 26 27 27 23 21 19 17 16 17 16 14 12 12 12 12 11 10 9 8 8 7 6 6 5 5 5 4
11 16 17 14 21 25 27 16 18 4 2 9 9 7 10 7 4 15 22 22 21 22 23 26 25 24 21 19 18 18 19 17 15 13 12 12 11 10 10 9 8 7 6 5 5 4 4 4 3
16 16 14 17 24 24 23 25 14 7 10 11 8 6 13 9 12 19 22 20 21 21 20 26 24 23 21 20 19 20 20 18 15 13 12 11 11 10 10 9 8 7 5 4 4 3 3 2 2
21 20 15 18 23 24 21 5 6 18 9 8 6 7 16 15 16 17 20 19 19 21 19 24 23 22 20 20 21 20 22 19 16 14 13 12 11 10 9 8 7 6 5 4 3 2 1 1 2
20 15 19 22 21 23 22 5 11 14 15 8 11 4 15 17 17 16 18 18 20 18 17 23 25 23 20 20 21 21 21 19 17 14 13 12 11 11 10 8 7 6 5 4 3 2 0 1 3
27 15 25 22 20 24 18 25 16 12 7 7 6 10 11 18 16 14 16 17 19 18 14 20 24 23 23 23 23 22 22 19 17 16 15 14 13 11 10 9 8 7 6 5 4 2 2 2 3
27 16 17 26 24 20 9 10 18 9 7 7 12 15 11 12 13 13 16 17 19 18 17 14 24 24 22 23 26 25 23 21 19 18 18 16 15 14 13 12 11 9 8 6 5 4 3 4 5
21 17 26 23 22 19 20 15 12 14 11 13 5 10 4 10 12 14 14 16 19 19 17 18 18 20 21 20 26 27 27 26 24 22 21 19 17 15 15 14 12 11 10 9 7 6 5 5 3
28 20 19 28 31 30 17 10 16 19 10 13 15 13 10 9 9 11 17 17 19 19 20 20 19 19 19 20 21 27 28 28 26 25 24 22 20 15 12 15 15 14 12 11 9 6 5 3 3
23 26 28 28 30 24 11 18 14 22 13 15 9 8 2 3 4 9 11 10 22 22 22 23 20 24 21 24 21 23 28 28 29 28 26 25 22 18 17 18 13 8 11 10 11 4 3 6 11
21 21 24 27 32 11 10 16 15 17 13 17 20 11 8 9 8 13 15 16 13 19 23 26 21 24 23 26 24 20 26 26 28 28 28 26 25 22 23 17 14 14 9 8 7 10 15 14 8
18 21 20 22 24 22 13 16 18 25 22 16 20 18 16 16 16 18 17 17 15 9 22 14 17 23 25 30 23 23 19 24 22 23 25 27 27 26 24 22 21 19 14 12 14 11 14 13 9
15 9 13 20 17 18 19 20 22 24 24 25 27 18 24 22 21 22 14 13 23 13 8 21 21 24 27 24 30 24 25 26 28 26 26 28 28 30 30 27 29 30 27 25 21 19 21 20 18
15 14 16 17 19 17 19 20 19 26 25 26 17 20 19 20 24 17 16 15 12 14 16 17 19 23 26 28 29 31 26 28 29 28 30 33 32 31 34 33 31 28 26 24 22 23 22 21 20
13 15 20 19 20 19 21 19 17 23 29 27 21 20 22 22 18 16 18 13 11 16 16 12 22 24 26 28 28 32 31 30 30 31 29 32 36 36 37 37 36 29 29 32 29 27 24 21 19
13 17 18 19 18 15 16 18 15 20 7 9 13 17 23 17 21 21 21 16 13 9 10 21 16 25 25 27 25 26 27 38 37 29 33 34 37 39 36 37 36 31 32 33 32 25 25 25 23
20 18 15 15 18 18 16 15 14 17 16 16 20 20 19 18 17 15 13 12 10 7 8 13 21 13 23 24 24 25 30 29 32 39 30 36 35 40 41 36 43 36 35 38 36 27 29 27 22
20 20 14 16 14 8 9 12 14 15 19 20 20 20 20 19 18 18 13 15 12 11 9 9 14 18 20 22 27 25 26 26 30 29 34 33 36 41 43 40 44 36 39 39 39 29 33 31 27
11 14 13 18 16 15 16 17 16 20 21 24 22 22 21 23 20 17 21 17 15 12 7 9 10 7 15 22 21 24 28 27 26 30 32 35 38 40 44 41 42 43 40 43 42 39 32 35 30
15 16 17 17 15 13 12 14 17 21 20 19 22 20 19 22 16 16 14 13 10 11 14 10 8 10 10 11 20 25 24 28 33 29 28 37 36 37 40 44 44 50 47 41 39 36 38 39 30
16 16 16 16 13 16 19 13 16 16 14 16 17 25 22 18 21 22 19 20 9 3 5 12 16 12 8 12 17 19 24 28 27 28 33 29 36 40 41 43 46 48 46 42 43 39 38 36 30
13 15 15 13 11 14 18 17 17 16 18 18 16 23 17 16 16 9 8 2 3 5 6 8 9 12 14 14 13 18 22 26 28 30 29 32 38 36 48 47 48 47 45 46 41 42 41 39 34
15 13 10 12 13 14 20 16 15 16 19 19 11 12 9 12 9 5 5 2 3 5 8 7 9 10 14 16 16 16 17 21 24 30 36 38 33 34 40 50 53 54 41 40 45 44 42 43 38
13 12 12 16 14 15 14 16 4 12 7 7 8 18 14 9 7 6 3 3 6 7 6 9 15 16 16 18 19 20 22 22 23 23 24 28 35 48 44 43 42 37 38 37 45 49 48 46 36
18 17 16 16 18 16 17 23 12 8 12 11 15 11 11 12 6 2 3 4 6 12 12 13 15 19 17 14 18 20 21 20 23 24 28 31 30 36 45 48 42 40 45 57 65 60 49 41 34
16 9 9 9 17 21 15 18 10 10 5 12 8 2 11 11 8 4 6 9 13 15 16 15 13 13 11 16 16 16 18 21 18 22 23 26 28 38 42 43 40 40 41 44 51 47 33 31 25
13 13 12 12 13 4 6 6 7 9 12 7 2 3 5 1 6 7 9 13 16 20 17 13 11 13 14 21 13 16 10 15 19 25 26 26 26 31 38 42 40 39 30 37 41 38 41 25 27
18 20 17 9 14 12 13 15 12 1 10 14 14 8 6 11 10 12 12 11 14 14 13 13 12 13 11 17 19 17 18 16 20 20 25 27 27 26 30 32 33 33 34 40 45 32 30 15 16
Wind_Direction
275 287 295 270 246 231 252 250 255 270 294 213 18 331 49 60 48 107 135 147 169 155 153 156 159 160 157 154 153 153 151 143 136 135 137 138 137 137 140 142 141 134 128 121 114 111 110 102 98
269 284 279 262 238 241 241 240 246 250 159 66 125 253 281 83 94 125 131 146 161 150 155 157 160 164 164 163 163 160 159 154 146 143 146 146 147 149 152 153 146 136 130 125 121 116 105 94 96
262 268 274 245 238 239 248 305 323 158 93 138 201 240 7 76 121 125 139 148 158 151 159 160 160 164 168 171 170 168 168 163 157 153 155 157 158 160 162 159 149 143 139 134 121 108 97 94 89
259 255 242 258 238 238 250 265 273 328 346 207 230 175 96 76 97 139 143 149 146 152 164 163 164 166 171 173 175 174 175 172 167 164 165 166 167 169 171 166 158 154 150 138 123 113 107 103 94
241 254 241 236 242 251 247 254 313 270 203 192 218 180 114 111 117 130 147 151 149 152 172 166 168 170 172 173 178 177 178 178 176 174 174 173 176 179 179 173 169 166 161 148 140 127 115 106 89
231 229 247 236 241 238 248 318 163 252 274 267 144 214 113 132 128 141 152 154 155 160 176 170 170 173 176 179 178 181 179 181 184 187 186 183 185 185 189 189 184 178 175 172 174 163 128 47 27
231 227 234 249 251 246 228 213 206 251 277 266 242 247 129 149 138 147 156 155 157 171 194 177 174 176 180 183 182 183 184 186 188 192 197 195 195 195 198 199 201 203 199 197 200 210 241 324 340
221 240 242 237 251 258 265 189 243 245 273 41 264 44 123 117 141 149 157 161 160 165 186 181 180 180 182 184 186 186 188 193 198 198 198 201 204 206 209 212 215 217 216 220 224 234 270 310 327
221 233 237 242 235 252 213 236 230 230 329 205 227 93 116 133 145 159 161 168 170 171 195 191 183 186 186 189 188 188 193 199 204 206 204 205 209 211 214 216 220 220 223 226 235 253 284 306 325
224 227 237 241 253 262 269 214 207 261 253 272 242 92 141 168 172 172 172 179 178 176 187 186 185 192 185 192 195 195 197 201 205 206 207 208 213 217 226 222 224 224 226 231 235 250 269 295 325
222 237 234 248 248 254 293 208 189 237 201 235 242 206 182 197 202 214 188 188 186 183 188 199 189 207 182 185 203 203 205 207 209 211 209 209 209 212 215 230 234 235 235 234 234 262 275 315 41
226 223 243 258 246 252 255 280 185 230 218 232 252 279 10 97 204 243 253 244 189 188 189 199 203 206 189 190 217 211 210 210 212 213 216 210 209 197 223 223 237 235 242 233 238 227 313 280 242
227 233 233 240 259 262 265 252 270 277 241 252 267 271 251 254 251 251 251 255 251 197 192 188 204 213 207 188 220 224 210 216 218 217 220 219 210 204 209 217 213 243 258 233 216 211 215 237 255
228 232 236 253 246 256 248 260 251 251 262 259 253 260 245 243 233 236 243 250 250 245 175 180 196 222 220 197 199 222 221 214 225 226 230 227 221 207 221 213 206 209 222 217 233 234 236 248 232
244 232 238 248 244 242 236 240 239 242 241 240 243 246 248 241 236 238 238 245 246 258 197 226 196 226 231 218 197 202 216 211 222 220 232 239 230 219 219 226 219 208 212 212 220 220 238 249 250
243 254 246 238 235 235 231 245 234 231 229 236 224 245 250 236 240 231 232 249 234 233 232 206 201 216 234 238 218 204 213 219 214 228 219 239 238 231 221 221 232 235 229 237 238 242 246 253 247
227 235 233 250 230 211 218 239 248 262 214 221 218 233 244 237 234 238 230 227 236 243 232 229 228 215 234 239 241 221 210 219 222 216 227 230 242 236 233 230 233 235 230 230 235 235 239 239 239
223 218 240 247 232 195 226 231 237 270 180 194 218 243 246 229 240 230 225 235 238 215 247 231 224 224 216 239 238 234 230 227 224 225 221 230 236 243 240 244 233 232 234 230 233 236 234 238 234
259 242 278 225 243 199 217 249 253 241 217 216 228 221 251 243 234 231 224 212 216 262 256 242 233 216 220 217 225 233 229 238 237 225 233 227 236 242 243 244 235 219 234 231 233 235 233 235 222
250 272 270 287 298 276 236 240 249 256 265 228 225 220 222 236 238 233 224 223 230 233 240 254 239 230 229 226 229 232 245 246 241 244 231 233 232 240 246 251 234 227 228 230 227 230 228 227 224
262 274 261 261 272 256 253 256 264 261 247 246 238 235 218 230 224 216 229 234 226 217 248 257 262 254 236 231 236 240 237 241 239 240 238 239 235 236 247 249 236 234 229 235 238 219 220 231 231
240 245 247 267 268 262 236 254 243 230 230 233 236 222 232 233 232 243 237 247 223 247 263 256 260 263 261 268 240 233 247 246 242 240 244 238 245 246 244 248 240 239 229 231 231 233 232 231 226
250 253 259 241 246 266 262 268 271 286 268 223 218 216 215 229 230 224 213 211 195 190 273 275 275 276 274 274 254 247 251 257 254 252 246 249 244 253 247 247 251 240 241 229 230 227 227 226 222
266 253 263 271 264 257 253 256 260 259 249 228 226 199 198 223 217 176 114 103 333 294 288 308 296 296 300 296 287 281 267 252 248 246 249 251 253 260 244 251 248 242 233 223 226 223 227 226 228
226 241 254 246 239 249 244 242 243 251 247 243 174 173 160 113 90 82 89 75 344 321 283 307 314 312 305 301 296 292 284 279 272 260 256 253 251 249 256 253 247 233 230 230 236 234 221 229 229
263 228 241 251 258 267 267 249 302 350 2 114 105 112 114 119 107 79 59 334 306 291 309 290 281 293 290 294 295 290 287 279 271 274 275 270 265 253 253 270 259 261 235 245 248 242 224 217 225
247 263 280 293 297 291 285 281 254 258 226 212 187 167 156 136 138 150 255 287 283 283 292 283 292 293 274 282 291 291 300 300 295 281 264 257 259 265 260 263 269 252 256 250 244 243 221 213 219
264 253 239 261 265 267 265 268 282 26 54 345 343 237 134 152 162 223 294 309 303 292 285 282 298 315 302 292 282 292 283 284 286 278 278 285 275 262 259 261 270 273 261 254 231 245 234 220 205
266 252 250 241 258 253 281 280 21 3 13 9 7 296 89 340 271 308 317 303 296 287 291 280 288 307 301 311 295 317 288 282 284 285 276 266 264 273 271 265 268 263 257 240 265 286 276 218 201
250 265 256 245 253 255 264 271 57 358 311 9 355 281 296 290 294 299 291 294 326 324 320 301 302 307 315 307 305 294 317 297 302 297 285 273 267 262 277 279 273 266 270 268 263 276 277 231 203
Height
1506 1505 1506 1503 1505 1491 1487 1470 1448 1440 1441 1440 1444 1446 1452 1453 1458 1484 1478 1477 1476 1480 1486 1492 1496 1500 1503 1507 1510 1513 1516 1518 1521 1524 1526 1528 1530 1532 1534 1536 1538 1539 1541 1542 1543 1544 1545 1545 1546
1504 1504 1504 1499 1499 1496 1479 1456 1448 1436 1439 1444 1449 1452 1452 1463 1466 1473 1478 1478 1478 1480 1485 1491 1496 1500 1504 1507 1511 1514 1517 1520 1522 1525 1527 1529 1531 1533 1536 1537 1539 1541 1542 1543 1544 1545 1546 1547 1548
1502 1504 1504 1491 1488 1487 1469 1449 1445 1434 1442 1449 1452 1453 1456 1467 1469 1472 1477 1478 1479 1482 1486 1490 1495 1500 1504 1508 1511 1514 1518 1521 1523 1525 1528 1530 1532 1534 1536 1538 1540 1542 1543 1544 1545 1546 1547 1548 1549
1502 1502 1499 1489 1480 1467 1458 1451 1446 1445 1446 1450 1449 1451 1462 1468 1470 1472 1478 1479 1481 1483 1487 1491 1495 1499 1503 1507 1511 1514 1518 1521 1523 1526 1528 1530 1533 1535 1537 1539 1541 1543 1544 1545 1546 1547 1548 1548 1549
1500 1496 1488 1481 1474 1459 1452 1448 1449 1448 1448 1449 1450 1452 1462 1468 1471 1474 1479 1481 1483 1485 1487 1492 1496 1500 1504 1507 1510 1513 1517 1521 1524 1526 1528 1531 1533 1535 1537 1539 1541 1543 1545 1546 1546 1548 1549 1549 1550
1494 1490 1488 1480 1465 1454 1449 1449 1455 1453 1450 1449 1450 1452 1463 1468 1471 1476 1480 1482 1485 1487 1488 1492 1496 1500 1503 1507 1510 1513 1516 1520 1523 1526 1528 1530 1533 1536 1538 1540 1541 1543 1545 1546 1547 1548 1548 1549 1550
1485 1481 1481 1471 1460 1450 1444 1454 1455 1455 1454 1452 1454 1451 1463 1467 1471 1477 1480 1483 1486 1487 1488 1492 1495 1499 1503 1506 1509 1513 1516 1519 1522 1525 1528 1531 1533 1536 1538 1540 1541 1543 1544 1545 1546 1547 1548 1549 1549
1481 1477 1473 1465 1463 1454 1439 1450 1455 1456 1456 1457 1458 1459 1462 1468 1472 1477 1481 1484 1486 1490 1488 1491 1494 1497 1500 1504 1509 1512 1516 1519 1522 1524 1527 1529 1532 1535 1537 1539 1541 1543 1544 1545 1546 1546 1547 1548 1549
1477 1474 1470 1463 1458 1451 1442 1451 1454 1456 1459 1461 1461 1462 1468 1471 1474 1477 1480 1483 1486 1489 1488 1490 1492 1496 1499 1502 1506 1510 1514 1518 1520 1523 1526 1528 1531 1533 1535 1537 1539 1541 1542 1543 1544 1545 1546 1546 1547
1467 1466 1462 1458 1451 1448 1442 1448 1453 1460 1461 1464 1461 1466 1471 1472 1473 1476 1479 1482 1485 1488 1488 1490 1494 1495 1498 1501 1504 1507 1511 1514 1517 1520 1524 1527 1530 1532 1533 1535 1537 1539 1540 1541 1542 1543 1544 1545 1546
1461 1458 1456 1455 1451 1449 1447 1445 1454 1458 1459 1463 1464 1465 1469 1472 1473 1474 1476 1478 1481 1484 1489 1489 1492 1495 1498 1501 1502 1505 1508 1511 1515 1518 1520 1524 1527 1529 1531 1532 1534 1536 1538 1539 1541 1541 1543 1544 1544
1456 1455 1456 1451 1449 1448 1452 1452 1451 1455 1459 1463 1464 1466 1468 1471 1473 1473 1474 1477 1469 1478 1483 1485 1489 1493 1497 1500 1500 1503 1505 1509 1511 1514 1518 1521 1523 1527 1529 1530 1532 1534 1535 1537 1537 1539 1540 1542 1543
1448 1449 1450 1451 1449 1448 1450 1452 1454 1454 1458 1463 1464 1466 1468 1472 1474 1473 1473 1474 1476 1476 1479 1478 1483 1490 1496 1499 1500 1500 1502 1506 1509 1511 1514 1517 1520 1523 1527 1528 1531 1531 1531 1534 1534 1537 1539 1540 1540
1443 1446 1446 1446 1447 1446 1451 1454 1457 1458 1460 1461 1464 1464 1467 1469 1471 1473 1473 1473 1473 1476 1474 1475 1476 1485 1492 1496 1500 1501 1502 1505 1507 1508 1510 1513 1516 1520 1521 1525 1528 1530 1531 1531 1532 1532 1533 1534 1535
1443 1444 1445 1446 1443 1445 1450 1453 1453 1456 1458 1460 1461 1462 1466 1465 1468 1469 1470 1471 1472 1476 1475 1484 1477 1483 1488 1492 1496 1498 1499 1502 1503 1505 1506 1506 1510 1514 1516 1517 1520 1524 1524 1526 1528 1528 1529 1529 1529
1443 1443 1450 1439 1440 1443 1448 1452 1445 1448 1451 1452 1456 1459 1459 1460 1463 1463 1467 1469 1471 1472 1475 1478 1480 1481 1483 1486 1491 1492 1496 1498 1500 1500 1502 1502 1504 1507 1510 1512 1512 1515 1518 1518 1518 1520 1520 1522 1523
1442 1451 1446 1440 1429 1434 1439 1446 1440 1439 1440 1444 1451 1456 1457 1457 1459 1461 1464 1466 1467 1469 1471 1473 1476 1479 1479 1481 1484 1487 1490 1493 1494 1497 1498 1499 1498 1502 1504 1507 1507 1509 1512 1514 1514 1515 1517 1516 1518
1445 1444 1437 1434 1424 1424 1432 1436 1437 1434 1436 1442 1448 1452 1452 1452 1456 1458 1460 1463 1467 1466 1468 1471 1473 1475 1478 1478 1480 1484 1484 1487 1488 1490 1493 1495 1493 1493 1499 1501 1503 1506 1507 1508 1508 1508 1512 1513 1513
1428 1424 1427 1418 1416 1421 1430 1435 1431 1432 1434 1439 1443 1446 1448 1449 1452 1454 1457 1460 1461 1464 1467 1469 1470 1471 1473 1474 1475 1477 1479 1480 1482 1484 1487 1489 1489 1489 1491 1494 1495 1497 1499 1499 1502 1502 1505 1506 1508
1430 1429 1431 1422 1417 1419 1423 1430 1430 1431 1430 1431 1435 1438 1443 1447 1449 1451 1454 1456 1459 1463 1465 1467 1468 1467 1468 1471 1472 1474 1475 1475 1477 1478 1480 1484 1485 1483 1484 1486 1488 1488 1489 1491 1493 1494 1497 1498 1501
1432 1436 1436 1435 1424 1420 1427 1432 1431 1427 1425 1426 1429 1433 1436 1441 1444 1447 1451 1453 1456 1459 1462 1464 1465 1464 1465 1467 1468 1470 1471 1473 1472 1473 1473 1474 1477 1478 1478 1479 1479 1479 1480 1480 1482 1485 1488 1491 1495
1439 1431 1432 1432 1433 1441 1423 1447 1424 1417 1417 1418 1422 1426 1431 1435 1439 1443 1446 1450 1453 1456 1460 1463 1463 1462 1463 1463 1463 1464 1465 1466 1466 1467 1468 1467 1467 1467 1469 1467 1469 1468 1469 1471 1472 1476 1477 1482 1486
1432 1425 1425 1425 1433 1437 1432 1437 1422 1409 1410 1408 1411 1417 1424 1429 1434 1437 1441 1446 1450 1454 1457 1458 1460 1460 1459 1459 1459 1459 1459 1460 1461 1462 1463 1462 1459 1458 1457 1455 1454 1455 1459 1464 1465 1465 1467 1469 1474
1423 1426 1426 1427 1434 1446 1434 1433 1424 1412 1403 1400 1402 1408 1418 1425 1429 1433 1438 1443 1448 1451 1453 1455 1456 1457 1456 1456 1456 1455 1455 1454 1454 1454 1454 1455 1455 1450 1447 1448 1446 1446 1449 1452 1456 1454 1457 1461 1463
1424 1433 1448 1452 1447 1443 1419 1421 1410 1395 1391 1391 1396 1406 1414 1422 1427 1433 1437 1442 1446 1449 1452 1453 1454 1453 1452 1452 1452 1451 1450 1449 1448 1448 1447 1448 1446 1443 1439 1439 1437 1424 1435 1442 1453 1451 1444 1448 1450
1427 1431 1443 1453 1440 1421 1399 1410 1405 1391 1391 1394 1400 1408 1416 1423 1428 1433 1437 1442 1445 1448 1449 1451 1452 1453 1451 1449 1448 1446 1444 1443 1442 1442 1441 1440 1439 1436 1433 1431 1432 1422 1437 1439 1442 1432 1429 1434 1442
1431 1434 1428 1439 1431 1433 1421 1403 1393 1392 1393 1397 1402 1409 1416 1423 1430 1435 1439 1441 1444 1446 1447 1448 1448 1447 1445 1446 1445 1442 1440 1438 1436 1435 1433 1432 1431 1428 1426 1428 1424 1427 1424 1420 1417 1416 1405 1415 1430
1422 1421 1442 1442 1458 1451 1426 1413 1408 1404 1406 1409 1406 1410 1418 1423 1430 1435 1438 1440 1442 1443 1443 1443 1443 1442 1442 1441 1439 1438 1434 1433 1431 1428 1426 1425 1423 1420 1419 1419 1417 1414 1415 1421 1415 1420 1390 1410 1418
1426 1427 1428 1436 1438 1461 1446 1424 1414 1416 1415 1413 1416 1417 1422 1427 1432 1434 1436 1438 1440 1439 1438 1437 1437 1437 1436 1436 1433 1434 1429 1427 1426 1423 1421 1419 1416 1414 1410 1411 1410 1408 1410 1412 1401 1392 1397 1403 1414
1427 1427 1427 1446 1444 1431 1436 1428 1416 1420 1423 1423 1429 1428 1430 1433 1433 1433 1434 1435 1435 1434 1433 1433 1433 1434 1433 1432 1431 1430 1427 1424 1423 1420 1417 1414 1411 1408 1403 1404 1402 1398 1396 1395 1395 1391 1400 1405 1410